SCP
0 0 0 0 0 0 0 0 0 0 0 0 0 0 0 0 0 0 0 0 0 0 0 0 0 0 0 0 0 0 0 0 0 0 0 0 0 0 0 0 0 0 0 0 0 0 0 0 -0 -0 0 -0 -0 -0
0 0 0 0 0 0 0 0 0 0 0 0 0 0 0 0 0 0 0 0 0 0 0 0 0 0 0 0 0 0 0 0 0 0 0 0 0 0 0 0 0 0 0 0 0 0 0 0 0 -0 0 -0 -0 -0
0 0 0 0 0 0 0 0 0 0 0 0 0 0 0 0 0 0 0 0 0 0 0 0 0 0 0 0 0 0 0 0 0 0 0 0 0 0 0 0 0 0 0 0 0 0 0 0 0 0 -0 -0 -0 0
0 0 0 0 0 0 0 0 0 0 0 0 0 0 0 0 0 0 0 0 0 0 0 0 0 0 0 0 0 0 0 0 0 0 0 0 0 0 0 0 0 0 0 0 0 0 0 0 0 0 -0 -0 -0 -0
0 0 0 0 0 0 0 0 0 0 0 0 0 0 0 0 0 0 0 0 0 0 0 0 0 0 0 0 0 0 0 0 0 0 0 0 0 0 0 0 0 0 0 0 0 0 0 0 0 -0 -0 -0 -0 -0
0 0 0 0 0 0 0 0 0 0 0 0 0 0 0 0 0 0 0 0 0 0 0 0 0 0 0 0 0 0 0 0 0 0 0 0 0 0 0 0 0 0 0 0 0 0 0 0 0 0 0 0 0 0
0 0 0 0 0 0 0 0 0 0 0 0 0 0 0 0 0 0 0 0 0 0 0 0 0 0 0 0 0 0 0 0 0 0 0 0 0 0 0 0 0 0 0 0 0 0 0 0 0 0 0 0 0 0
0 0 0 0 0 0 0 0 0 0 0 0 0 0 0 0 0 0 0 0 0 0 0 0 0 0 0 0 0 0 0 0 0 0 0 0 0 0 0 0 0 0 0 0 0 0 0 0 0 0 0 0 0 0
0 0 0 0 0 0 0 0 0 0 0 0 0 0 0 0 0 0 0 0 0 0 0 0 0 0 0 0 0 0 0 0 0 0 0 0 0 0 0 0 0 0 0 0 0 0 0 0 0 0 0 0 0 0
0 0 0 0 0 0 0 0 0 0 0 0 0 0 0 0 0 0 0 0 0 0 0 0 0 0 0 0 0 0 0 0 0 0 0 0 0 0 0 0 0 0 0 0 0 0 0 0 0 0 0 0 0 0
0 0 0 0 0 0 0 0 0 0 0 0 0 0 0 0 0 0 0 0 0 0 0 0 0 0 0 0 0 0 0 0 0 0 0 0 0 0 0 0 0 0 0 0 0 0 0 0 0 0 0 0 0 0
0 0 0 0 0 0 0 0 -0 0 0 0 0 0 0 0 0 0 0 0 0 0 0 0 0 0 0 0 0 0 0 0 0 0 0 0 0 0 0 0 0 0 0 0 0 0 0 0 0 0 0 0 0 0
0 0 0 0 0 0 0 0 0 0 0 0 0 0 0 0 0 0 0 0 0 0 0 0 0 0 0 0 0 0 0 0 0 0 0 0 0 0 0 0 0 0 0 0 0 0 0 0 0 0 0 0 0 0
0 0 0 0 0 0 0 0 0 0 0 0 0 0 0 0 0 0 0 0 0 0 0 0 0 0 0 0 0 0 0 0 0 0 0 0 0 0 0 0 0 0 0 0 0 0 0 0 0 0 0 0 0 0
0 0 0 0 0 0 0 0 0 0 0 0 0 0 0 0 0 0 0 0 0 0 0 0 0 0 0 0 0 0 0 0 0 0 0 0 0 0 0 0 0 0 0 0 0 0 0 0 0 0 0 0 0 0
0 0 0 0 0 0 0 0 0 0 0 0 0 0 0 0 0 0 0 0 0 0 0 0 0 0 0 0 0 0 0 0 0 0 0 0 0 0 0 0 0 0 0 0 0 0 0 0 0 0 0 0 0 0
0 0 0 0 0 0 0 0 0 0 0 0 0 0 0 0 0 0 0 0 0 0 0 0 0 0 0 0 0 0 0 0 0 0 0 0 0 0 -0 0 0 0 0 0 0 0 0 0 0 0 0 0 0 0
0 0 0 0 0 0 0 0 0 0 0 0 0 0 0 0 0 0 0 0 0 0 0 0 0 0 0 0 0 0 0 0 0 0 0 0 0 0 0 0 0 0 0 0 0 0 0 0 0 0 0 0 0 0
0 0 0 0 0 0 0 0 0 0 0 0 0 0 0 0 0 0 0 0 0 0 0 0 0 0 0 0 0 0 0 0 0 0 0 0 0 0 0 0 0 0 0 0 0 0 0 0 0 0 0 0 0 0
0 0 0 0 0 0 0 0 0 0 0 0 0 0 0 0 0 0 0 0 0 0 0 0 0 0 0 0 0 0 0 0 0 0 -0 -0 -0 -0 0 0 0 0 0 0 0 0 0 0 0 0 0 0 0 0
0 0 0 0 0 0 0 0 0 0 0 0 0 0 0 0 0 0 0 0 0 0 0 0 0 0 0 0 0 0 0 0 0 0 0 -0 -0 0 0 0 0 0 0 0 0 0 0 0 0 0 0 0 0 0
0 0 0 0 0 0 0 0 0 0 0 0 0 0 0 0 0 0 0 0 0 0 0 0 0 0 0 0 0 0 0 0 0 0 0 -0 -0 0 0 -0 -0 -0 0 0 0 0 0 0 0 0 0 0 0 0
0 0 0 0 0 0 0 0 0 0 0 0 0 0 0 0 0 0 0 0 0 0 0 0 0 0 0 0 0 0 0 0 0 0 -0 -0 0 -0 -0 -0 0 0 0 0 0 0 0 0 0 0 0 0 0 0
0 0 0 0 0 0 0 0 0 0 0 0 0 0 0 0 0 0 0 0 0 0 0 0 0 0 0 0 -0 0 0 0 0 -0 0 0 -0 -0 -0 -0 0 0 0 0 0 0 0 0 0 0 0 0 0 0
0 0 0 0 0 0 0 0 0 0 0 0 0 0 0 0 0 0 0 0 0 0 0 0 0 0 -0 -0 -0 0 0 0 0 -0 -0 -0 -0 -0 -0 0 0 0 0 0 0 0 0 0 0 0 0 0 0 0
0 0 0 0 0 0 0 0 0 0 0 0 0 0 0 0 0 0 0 0 0 0 0 0 -0 -0 -0 -0 -0 0 0 -0 -0 -0 -0 -0 -0 0 0 0 0 0 0 0 0 0 0 0 -0 0 0 0 0 0
0 0 0 0 0 0 0 0 0 0 0 0 0 0 0 0 0 0 0 0 0 0 -0 -0 -0 -0 -0 -0 0 0 0 -0 -0 -0 -0 -0 -0 0 0 0 0 0 0 0 0 0 0 0 0 0 0 0 0 0
0 0 0 0 0 0 0 0 0 0 0 0 0 0 0 0 0 0 0 0 0 0 0 0 0 0 0 0 -0 -0 0 -0 -0 -0 -0 -0 -0 0 0 0 0 0 0 0 0 0 0 0 0 0 0 0 -0 0
0 0 0 0 0 0 0 0 0 0 0 0 0 0 0 0 0 0 0 0 0 0 0 0 0 0 0 0 0 -0 -0 -0 -0 0 -0 -0 0 0 0 0 0 0 0 0 0 0 0 0 0 0 0 0 0 0
0 0 0 0 0 0 0 0 0 0 0 0 0 0 0 0 0 0 0 0 0 -0 0 0 0 0 0 0 0 0 0 -0 -0 -0 0 0 0 0 0 0 0 0 0 0 0 0 0 0 0 0 0 0 0 0
0 0 0 0 0 0 0 0 0 0 0 0 0 0 0 0 0 0 0 0 0 0 0 0 0 0 0 0 0 0 0 0 0 0 0 0 0 0 0 -0 0 0 0 0 0 0 0 0 0 0 0 0 0 0
0 0 0 0 0 0 0 0 0 0 0 0 0 0 0 0 0 0 0 0 0 0 0 0 0 0 0 0 0 0 0 0 0 0 0 0 0 -0 0 0 0 0 0 0 0 0 0 0 0 0 0 0 0 0
0 0 0 0 0 0 0 0 0 0 0 0 0 0 0 0 0 0 0 0 0 0 0 0 0 0 0 0 0 0 0 0 0 0 0 -0 0 0 0 0 0 0 0 0 0 0 0 0 0 0 0 0 0 0
Wind_Speed_500mb
99 98 96 94 91 86 82 82 80 75 71 67 66 65 73 88 91 83 101 97 74 28 32 32 36 29 17 16 8 10 3 2 3 4 6 7 5 8 4 9 7 8 4 6 4 3 12 10 9 2 12 28 29 40
106 106 105 103 99 93 88 84 79 75 72 63 59 61 65 84 97 85 88 86 75 46 18 19 33 46 55 50 31 27 14 12 24 4 1 3 5 3 8 6 2 5 12 5 10 11 18 23 19 26 22 26 28 38
112 113 112 111 109 105 98 92 83 77 72 67 62 56 62 76 99 89 96 67 63 43 42 54 49 45 49 47 56 27 21 29 18 19 14 5 8 5 4 10 7 9 11 13 9 11 20 39 42 17 17 35 37 30
117 118 118 117 115 111 106 100 91 83 76 71 67 61 58 76 99 102 109 88 69 16 9 14 25 35 29 26 41 52 55 23 23 27 11 5 5 16 6 11 15 14 6 9 16 30 36 38 12 13 45 37 34 41
105 108 113 116 115 114 110 105 95 87 81 74 68 66 62 87 82 106 100 86 73 49 12 7 15 28 31 40 46 46 48 52 19 12 6 6 9 7 9 4 22 25 21 8 12 20 18 20 26 43 33 32 42 51
96 97 97 99 102 102 99 92 90 86 79 73 70 65 60 89 104 93 28 61 65 55 6 3 2 9 14 22 14 27 53 46 36 14 9 16 30 17 7 7 20 38 48 58 28 20 23 33 31 22 30 46 40 39
97 96 93 93 89 88 82 83 81 76 73 67 64 61 72 104 102 77 23 24 73 52 12 4 7 8 14 18 18 22 31 26 24 16 14 14 18 20 5 18 47 28 39 40 41 34 24 8 12 36 37 39 38 35
99 98 97 91 85 82 74 68 67 68 64 57 58 77 100 95 86 42 19 35 60 33 14 4 6 6 20 12 7 15 15 23 16 11 8 7 6 15 11 27 28 29 25 25 27 25 26 31 36 29 34 36 38 35
96 98 95 90 85 77 67 59 54 56 56 55 81 99 86 60 28 35 35 45 46 13 17 9 8 6 20 9 8 13 13 3 13 7 6 8 4 11 14 16 26 22 12 12 15 20 27 22 28 29 29 31 35 37
93 95 93 86 76 59 48 50 48 48 73 84 107 32 13 31 61 62 29 35 20 14 14 5 16 5 20 15 6 10 9 6 3 8 11 5 8 42 31 20 17 16 14 14 16 12 23 25 23 24 27 29 32 35
88 91 87 69 49 42 44 49 49 84 93 73 21 14 59 82 34 11 12 10 11 3 15 11 27 9 15 5 5 9 5 2 1 7 6 5 7 6 16 16 14 12 12 13 15 17 17 20 22 24 21 20 23 26
82 84 71 45 35 36 42 50 97 94 62 57 43 56 65 12 9 10 10 7 8 11 17 12 10 16 11 9 6 5 5 3 10 4 2 6 6 11 14 10 7 8 9 13 13 12 11 14 17 17 17 16 19 23
72 69 47 40 34 38 35 86 101 89 82 62 18 22 19 12 9 17 21 7 8 13 20 21 9 15 9 9 6 5 5 8 5 1 7 8 3 12 7 4 5 7 9 12 11 9 9 9 9 10 11 15 18 19
58 46 41 39 40 48 60 108 101 91 51 12 15 14 13 10 12 8 10 10 13 32 45 42 15 8 9 4 5 7 7 5 3 4 10 4 11 8 3 4 6 8 10 11 9 7 6 5 5 7 10 12 14 16
42 34 38 42 48 52 123 111 97 70 12 11 9 8 7 9 13 23 38 29 30 55 49 23 13 8 2 5 4 4 2 7 10 8 5 3 8 5 5 8 10 10 10 10 8 6 5 5 4 6 10 15 19 20
29 16 39 40 70 118 118 112 78 18 12 9 10 8 14 15 6 15 34 33 46 54 31 13 6 6 5 7 5 12 9 10 5 4 1 3 7 7 9 13 12 10 10 8 6 4 5 5 7 9 13 17 20 20
7 64 67 88 86 72 73 57 17 17 13 9 6 21 17 28 16 19 33 37 54 30 5 6 9 11 4 4 5 8 8 5 5 2 4 10 14 15 16 15 13 8 7 5 4 4 6 8 10 13 15 19 21 21
51 35 40 54 64 52 42 21 15 14 11 10 5 8 24 23 36 31 24 48 25 12 13 7 13 4 9 9 6 5 7 10 4 2 6 10 12 16 14 13 11 8 8 8 8 7 9 11 13 17 20 21 20 20
35 30 27 36 20 18 14 14 13 9 12 11 20 22 20 28 28 29 43 44 22 22 22 10 6 6 6 7 6 12 14 9 2 6 13 15 14 14 12 10 10 9 10 10 11 12 13 14 16 20 22 21 18 17
28 34 34 29 23 12 11 11 10 14 4 7 14 13 14 15 24 26 38 34 24 14 5 4 8 12 12 8 4 4 4 8 9 10 14 16 13 12 13 11 11 10 10 11 13 15 16 17 20 20 18 17 16 15
25 25 21 17 23 17 12 8 12 11 13 10 19 8 11 16 12 10 12 25 12 10 4 19 21 22 21 21 20 20 21 22 20 19 17 18 19 16 15 14 12 10 10 12 14 16 18 18 17 15 14 15 14 11
18 22 12 15 11 11 14 13 13 12 8 11 10 7 9 5 6 7 12 8 8 11 14 12 23 29 32 30 27 27 26 25 23 20 21 21 19 18 15 12 10 10 12 15 16 15 14 13 12 13 12 10 9 9
24 19 10 8 10 11 7 8 6 6 6 3 5 6 5 3 5 10 2 8 10 14 22 22 22 22 23 25 25 24 23 22 22 22 20 18 16 15 11 9 10 12 13 15 15 13 10 11 10 9 8 8 10 13
27 11 8 8 11 5 6 8 7 8 7 5 5 4 3 1 7 5 5 8 9 8 10 17 20 20 21 21 21 20 20 21 22 20 18 16 14 10 9 10 11 12 11 12 10 8 9 9 8 7 9 11 15 17
11 8 8 10 8 9 7 5 6 7 4 1 6 2 3 5 3 1 6 5 4 7 10 11 11 16 16 17 18 18 20 19 17 14 13 11 10 10 9 9 9 10 10 9 6 7 7 7 9 11 14 17 19 19
10 5 5 8 4 8 7 7 7 8 6 4 2 0 2 5 4 9 6 2 4 5 3 7 7 10 15 16 11 9 11 12 12 9 8 10 12 12 9 7 8 10 10 6 4 6 7 10 12 15 17 19 23 27
10 5 6 10 14 21 11 11 8 6 6 9 6 4 5 3 7 7 3 4 4 4 3 6 6 6 7 8 10 10 10 10 9 9 11 14 18 18 12 9 10 8 5 4 5 7 8 11 15 18 18 19 25 33
8 13 13 14 12 7 11 6 7 9 8 13 16 6 15 15 8 4 3 4 4 5 4 6 7 8 8 8 10 10 10 11 10 10 11 13 14 14 13 12 10 6 5 4 5 8 10 14 16 18 22 27 30 33
9 19 17 8 8 9 4 7 9 8 15 24 9 7 7 8 6 5 5 5 6 6 6 7 8 9 11 13 13 12 12 10 7 6 6 6 6 10 12 9 6 7 5 4 6 9 12 14 18 22 27 33 38 41
6 5 11 5 7 4 3 6 8 18 13 14 11 9 8 6 5 6 5 5 6 6 8 8 8 9 9 10 10 10 10 9 9 9 7 7 7 6 7 9 9 6 4 3 7 10 13 17 21 27 33 37 40 42
10 6 12 12 5 4 11 19 19 17 13 8 8 5 6 3 4 9 9 10 10 10 10 10 10 9 9 8 9 11 11 10 8 6 6 5 7 10 12 12 8 4 1 5 8 11 15 20 26 32 36 38 39 41
8 9 7 7 1 14 14 5 6 5 5 5 5 7 5 5 4 5 9 14 12 11 11 10 9 9 9 8 7 7 7 7 8 9 9 12 16 16 14 9 4 0 3 6 10 15 20 26 31 35 37 39 41 44
8 10 12 12 7 1 7 7 5 5 4 3 3 5 6 4 6 7 10 14 13 13 13 12 11 10 9 9 10 11 12 13 15 18 20 20 18 14 10 5 1 2 5 9 14 20 26 29 31 34 36 40 43 45
Wind_Direction_500mb
288 288 288 288 287 286 285 283 284 285 285 285 280 277 281 271 240 225 230 231 220 224 236 211 222 212 173 195 202 174 284 246 67 143 145 246 166 228 109 232 202 188 150 248 49 53 289 199 354 102 248 304 315 327
286 286 286 285 285 285 283 283 283 283 283 283 282 271 276 273 246 224 219 227 219 224 251 223 248 254 244 243 237 194 201 166 203 110 216 86 310 355 178 265 160 298 190 207 185 227 265 297 291 298 298 301 320 324
283 283 284 284 283 282 282 281 280 280 280 280 280 276 271 273 244 220 216 212 203 223 255 258 248 261 256 246 245 223 219 224 209 218 179 202 220 138 213 246 234 268 219 246 337 264 260 289 305 287 302 318 317 314
284 282 281 281 281 281 280 279 278 277 277 277 276 273 270 270 236 212 215 216 205 172 231 250 225 247 249 223 224 227 233 221 225 218 186 188 183 205 228 244 248 220 287 244 261 279 278 278 169 303 317 314 311 317
289 286 284 282 281 279 278 277 277 275 273 273 274 267 269 251 214 210 212 213 215 201 192 217 213 241 239 242 238 237 232 225 208 186 192 219 228 231 244 318 263 235 242 196 232 243 230 260 287 307 312 316 317 320
296 293 290 287 283 280 277 273 272 271 270 269 268 264 271 220 205 195 195 215 216 217 222 305 246 237 232 206 213 216 223 224 217 192 208 235 238 198 250 227 247 249 248 237 248 242 256 285 297 281 310 311 313 316
298 297 295 290 288 283 272 269 267 267 265 263 268 263 233 207 197 178 192 201 198 198 171 296 303 204 214 216 208 200 202 202 210 223 227 232 221 217 236 255 263 255 274 259 247 266 285 240 253 301 309 311 311 312
297 296 295 292 288 282 271 266 262 261 261 259 264 195 181 182 179 176 136 147 171 161 174 164 260 177 193 173 156 182 183 200 208 228 234 202 223 209 247 247 264 264 254 226 242 259 270 282 296 300 309 312 315 322
298 296 294 290 285 281 268 256 253 252 264 202 192 164 162 164 157 146 136 152 164 166 174 172 168 209 170 156 146 169 175 154 215 206 224 175 227 223 233 243 225 227 221 213 247 278 285 289 306 312 318 321 323 329
299 294 292 287 283 270 261 245 235 241 182 174 157 140 137 137 135 132 139 170 189 207 212 198 190 165 168 165 176 133 176 222 227 231 157 208 250 254 261 250 219 224 242 269 299 287 297 309 321 326 330 330 330 331
298 294 290 286 265 258 240 224 234 184 166 153 144 94 134 140 131 123 142 160 168 232 207 199 187 134 184 124 173 203 191 233 263 259 156 253 268 231 200 212 224 245 270 289 298 299 303 310 319 325 337 338 338 342
297 291 288 263 253 238 221 234 185 177 177 178 140 128 139 146 108 140 168 170 186 210 166 147 161 159 139 143 115 189 179 71 248 155 90 268 248 158 179 197 230 265 285 296 304 305 310 319 327 336 345 356 359 3
298 290 267 239 235 220 225 187 183 181 167 126 111 143 157 154 171 187 175 205 176 160 152 146 125 142 134 168 126 122 156 229 123 151 230 231 141 165 177 225 273 283 299 304 304 308 318 331 344 357 1 5 7 7
301 274 250 234 231 210 211 184 170 164 159 112 139 141 198 181 206 181 173 140 123 136 138 137 119 135 143 111 161 139 229 88 272 262 237 258 194 186 238 287 299 301 309 301 296 293 299 320 332 354 3 4 359 355
318 255 238 233 210 214 171 166 162 160 104 96 124 139 174 116 91 107 116 108 116 140 135 109 81 113 124 133 175 118 41 249 210 232 231 217 179 208 276 304 305 304 311 294 277 268 286 295 311 326 327 331 335 339
4 285 240 219 177 166 161 162 156 116 76 79 66 84 97 91 80 91 109 114 136 138 122 103 115 93 216 153 129 209 167 220 249 229 132 222 240 272 301 304 302 303 312 299 274 263 271 283 303 312 315 319 325 325
22 97 109 123 133 140 145 137 77 61 72 60 36 98 102 111 113 117 132 140 150 142 124 124 123 194 104 110 230 193 205 201 156 187 293 289 285 287 299 300 294 290 295 285 254 256 291 308 314 312 315 312 310 312
113 115 114 120 125 118 108 48 69 65 67 79 93 54 79 106 124 128 142 152 151 127 129 172 123 120 189 181 248 217 156 160 178 289 314 305 299 304 298 293 280 271 270 271 275 296 301 304 309 307 308 311 315 316
133 141 136 147 126 76 52 46 56 90 65 71 99 82 93 113 133 146 156 162 156 148 134 143 107 186 222 208 171 157 168 162 181 317 310 311 312 301 292 296 278 269 271 273 286 294 297 306 312 312 315 319 320 316
149 167 168 161 152 76 70 50 64 91 90 100 108 96 100 112 131 142 164 171 158 147 104 169 207 195 187 210 190 165 246 272 278 287 288 294 296 288 283 285 268 270 276 284 291 295 302 311 315 314 314 316 317 316
175 152 151 162 68 72 85 66 64 79 110 90 124 105 94 121 118 141 152 174 179 200 228 222 216 213 224 235 248 260 264 265 266 272 277 282 281 277 278 275 266 278 281 289 291 300 314 319 315 311 310 310 317 322
178 172 121 76 77 72 74 53 94 102 89 114 119 100 103 89 102 123 151 177 233 234 217 221 230 235 241 245 255 260 261 260 262 269 277 274 274 276 273 254 254 274 287 297 307 315 310 310 308 306 314 324 326 324
178 171 95 78 90 63 67 73 85 52 101 152 102 63 12 60 94 153 242 229 255 236 231 236 236 235 238 243 247 252 254 255 260 263 265 266 262 258 251 245 257 271 290 305 308 306 306 309 311 321 331 324 313 315
154 126 93 75 72 110 109 49 69 83 89 54 67 63 332 142 138 58 248 262 238 246 245 241 238 237 238 242 245 248 249 251 252 255 258 257 250 244 238 243 258 280 294 295 295 301 311 313 319 323 318 316 319 320
118 36 97 62 87 97 79 45 21 60 96 337 91 351 289 152 64 295 232 271 312 278 250 240 229 224 227 234 239 239 240 241 243 246 255 253 236 221 231 252 278 283 288 285 287 304 310 315 315 317 320 321 320 321
85 20 76 156 135 109 160 119 161 152 124 104 177 95 117 86 64 249 239 266 312 323 256 207 210 218 223 228 232 234 232 230 236 248 250 231 213 210 229 266 288 287 281 271 285 294 299 310 314 318 320 320 322 322
121 172 99 104 110 117 91 82 109 104 122 155 184 112 84 119 249 252 253 276 286 316 223 196 209 225 227 235 226 224 224 225 225 225 225 218 215 224 244 271 289 287 259 244 272 288 305 312 316 319 323 325 324 323
107 155 132 148 102 87 119 96 130 171 185 160 130 167 169 188 225 195 221 293 277 275 253 232 239 239 225 210 201 201 200 201 211 219 223 229 234 241 245 261 281 253 226 254 290 308 312 318 322 325 327 326 326 325
77 123 119 60 83 73 105 147 182 148 142 170 146 189 224 185 186 196 268 270 260 255 246 229 227 220 212 203 201 204 200 208 218 230 229 240 250 241 237 250 224 201 217 257 293 310 319 324 325 326 327 326 327 328
95 117 103 86 93 109 50 91 113 139 137 143 136 129 147 171 200 236 244 230 222 207 201 199 197 194 196 200 201 200 208 216 228 242 243 237 238 234 206 186 177 182 209 277 309 316 322 327 328 326 325 326 327 329
101 86 74 54 86 74 122 118 122 127 138 155 153 138 138 169 246 237 218 207 201 198 193 187 186 186 183 188 203 214 225 229 242 236 217 197 182 171 161 155 158 172 274 314 319 326 331 331 329 330 332 333 335 335
51 55 118 103 61 131 121 95 110 99 115 139 139 170 180 209 245 228 212 206 201 194 194 199 212 225 232 235 225 204 195 187 180 180 175 161 151 144 142 145 147 195 320 328 336 336 335 334 335 337 338 339 339 342
90 75 81 101 95 91 144 124 81 76 80 103 124 182 199 230 248 228 205 195 196 199 209 221 231 232 218 200 183 174 164 161 158 151 145 140 136 136 138 135 125 350 349 346 342 341 340 339 341 341 342 344 345 346
Wind_Speed_850mb
99 98 96 94 91 86 82 82 80 75 71 67 66 65 73 88 91 83 101 97 74 28 32 32 36 29 17 16 8 10 3 2 3 4 6 7 5 8 4 9 7 8 4 6 4 3 12 10 9 2 12 28 29 40
106 106 105 103 99 93 88 84 79 75 72 63 59 61 65 84 97 85 88 86 75 46 18 19 33 46 55 50 31 27 14 12 24 4 1 3 5 3 8 6 2 5 12 5 10 11 18 23 19 26 22 26 28 38
112 113 112 111 109 105 98 92 83 77 72 67 62 56 62 76 99 89 96 67 63 43 42 54 49 45 49 47 56 27 21 29 18 19 14 5 8 5 4 10 7 9 11 13 9 11 20 39 42 17 17 35 37 30
117 118 118 117 115 111 106 100 91 83 76 71 67 61 58 76 99 102 109 88 69 16 9 14 25 35 29 26 41 52 55 23 23 27 11 5 5 16 6 11 15 14 6 9 16 30 36 38 12 13 45 37 34 41
105 108 113 116 115 114 110 105 95 87 81 74 68 66 62 87 82 106 100 86 73 49 12 7 15 28 31 40 46 46 48 52 19 12 6 6 9 7 9 4 22 25 21 8 12 20 18 20 26 43 33 32 42 51
96 97 97 99 102 102 99 92 90 86 79 73 70 65 60 89 104 93 28 61 65 55 6 3 2 9 14 22 14 27 53 46 36 14 9 16 30 17 7 7 20 38 48 58 28 20 23 33 31 22 30 46 40 39
97 96 93 93 89 88 82 83 81 76 73 67 64 61 72 104 102 77 23 24 73 52 12 4 7 8 14 18 18 22 31 26 24 16 14 14 18 20 5 18 47 28 39 40 41 34 24 8 12 36 37 39 38 35
99 98 97 91 85 82 74 68 67 68 64 57 58 77 100 95 86 42 19 35 60 33 14 4 6 6 20 12 7 15 15 23 16 11 8 7 6 15 11 27 28 29 25 25 27 25 26 31 36 29 34 36 38 35
96 98 95 90 85 77 67 59 54 56 56 55 81 99 86 60 28 35 35 45 46 13 17 9 8 6 20 9 8 13 13 3 13 7 6 8 4 11 14 16 26 22 12 12 15 20 27 22 28 29 29 31 35 37
93 95 93 86 76 59 48 50 48 48 73 84 107 32 13 31 61 62 29 35 20 14 14 5 16 5 20 15 6 10 9 6 3 8 11 5 8 42 31 20 17 16 14 14 16 12 23 25 23 24 27 29 32 35
88 91 87 69 49 42 44 49 49 84 93 73 21 14 59 82 34 11 12 10 11 3 15 11 27 9 15 5 5 9 5 2 1 7 6 5 7 6 16 16 14 12 12 13 15 17 17 20 22 24 21 20 23 26
82 84 71 45 35 36 42 50 97 94 62 57 43 56 65 12 9 10 10 7 8 11 17 12 10 16 11 9 6 5 5 3 10 4 2 6 6 11 14 10 7 8 9 13 13 12 11 14 17 17 17 16 19 23
72 69 47 40 34 38 35 86 101 89 82 62 18 22 19 12 9 17 21 7 8 13 20 21 9 15 9 9 6 5 5 8 5 1 7 8 3 12 7 4 5 7 9 12 11 9 9 9 9 10 11 15 18 19
58 46 41 39 40 48 60 108 101 91 51 12 15 14 13 10 12 8 10 10 13 32 45 42 15 8 9 4 5 7 7 5 3 4 10 4 11 8 3 4 6 8 10 11 9 7 6 5 5 7 10 12 14 16
42 34 38 42 48 52 123 111 97 70 12 11 9 8 7 9 13 23 38 29 30 55 49 23 13 8 2 5 4 4 2 7 10 8 5 3 8 5 5 8 10 10 10 10 8 6 5 5 4 6 10 15 19 20
29 16 39 40 70 118 118 112 78 18 12 9 10 8 14 15 6 15 34 33 46 54 31 13 6 6 5 7 5 12 9 10 5 4 1 3 7 7 9 13 12 10 10 8 6 4 5 5 7 9 13 17 20 20
7 64 67 88 86 72 73 57 17 17 13 9 6 21 17 28 16 19 33 37 54 30 5 6 9 11 4 4 5 8 8 5 5 2 4 10 14 15 16 15 13 8 7 5 4 4 6 8 10 13 15 19 21 21
51 35 40 54 64 52 42 21 15 14 11 10 5 8 24 23 36 31 24 48 25 12 13 7 13 4 9 9 6 5 7 10 4 2 6 10 12 16 14 13 11 8 8 8 8 7 9 11 13 17 20 21 20 20
35 30 27 36 20 18 14 14 13 9 12 11 20 22 20 28 28 29 43 44 22 22 22 10 6 6 6 7 6 12 14 9 2 6 13 15 14 14 12 10 10 9 10 10 11 12 13 14 16 20 22 21 18 17
28 34 34 29 23 12 11 11 10 14 4 7 14 13 14 15 24 26 38 34 24 14 5 4 8 12 12 8 4 4 4 8 9 10 14 16 13 12 13 11 11 10 10 11 13 15 16 17 20 20 18 17 16 15
25 25 21 17 23 17 12 8 12 11 13 10 19 8 11 16 12 10 12 25 12 10 4 19 21 22 21 21 20 20 21 22 20 19 17 18 19 16 15 14 12 10 10 12 14 16 18 18 17 15 14 15 14 11
18 22 12 15 11 11 14 13 13 12 8 11 10 7 9 5 6 7 12 8 8 11 14 12 23 29 32 30 27 27 26 25 23 20 21 21 19 18 15 12 10 10 12 15 16 15 14 13 12 13 12 10 9 9
24 19 10 8 10 11 7 8 6 6 6 3 5 6 5 3 5 10 2 8 10 14 22 22 22 22 23 25 25 24 23 22 22 22 20 18 16 15 11 9 10 12 13 15 15 13 10 11 10 9 8 8 10 13
27 11 8 8 11 5 6 8 7 8 7 5 5 4 3 1 7 5 5 8 9 8 10 17 20 20 21 21 21 20 20 21 22 20 18 16 14 10 9 10 11 12 11 12 10 8 9 9 8 7 9 11 15 17
11 8 8 10 8 9 7 5 6 7 4 1 6 2 3 5 3 1 6 5 4 7 10 11 11 16 16 17 18 18 20 19 17 14 13 11 10 10 9 9 9 10 10 9 6 7 7 7 9 11 14 17 19 19
10 5 5 8 4 8 7 7 7 8 6 4 2 0 2 5 4 9 6 2 4 5 3 7 7 10 15 16 11 9 11 12 12 9 8 10 12 12 9 7 8 10 10 6 4 6 7 10 12 15 17 19 23 27
10 5 6 10 14 21 11 11 8 6 6 9 6 4 5 3 7 7 3 4 4 4 3 6 6 6 7 8 10 10 10 10 9 9 11 14 18 18 12 9 10 8 5 4 5 7 8 11 15 18 18 19 25 33
8 13 13 14 12 7 11 6 7 9 8 13 16 6 15 15 8 4 3 4 4 5 4 6 7 8 8 8 10 10 10 11 10 10 11 13 14 14 13 12 10 6 5 4 5 8 10 14 16 18 22 27 30 33
9 19 17 8 8 9 4 7 9 8 15 24 9 7 7 8 6 5 5 5 6 6 6 7 8 9 11 13 13 12 12 10 7 6 6 6 6 10 12 9 6 7 5 4 6 9 12 14 18 22 27 33 38 41
6 5 11 5 7 4 3 6 8 18 13 14 11 9 8 6 5 6 5 5 6 6 8 8 8 9 9 10 10 10 10 9 9 9 7 7 7 6 7 9 9 6 4 3 7 10 13 17 21 27 33 37 40 42
10 6 12 12 5 4 11 19 19 17 13 8 8 5 6 3 4 9 9 10 10 10 10 10 10 9 9 8 9 11 11 10 8 6 6 5 7 10 12 12 8 4 1 5 8 11 15 20 26 32 36 38 39 41
8 9 7 7 1 14 14 5 6 5 5 5 5 7 5 5 4 5 9 14 12 11 11 10 9 9 9 8 7 7 7 7 8 9 9 12 16 16 14 9 4 0 3 6 10 15 20 26 31 35 37 39 41 44
8 10 12 12 7 1 7 7 5 5 4 3 3 5 6 4 6 7 10 14 13 13 13 12 11 10 9 9 10 11 12 13 15 18 20 20 18 14 10 5 1 2 5 9 14 20 26 29 31 34 36 40 43 45
Wind_Direction_850mb
288 288 288 288 287 286 285 283 284 285 285 285 280 277 281 271 240 225 230 231 220 224 236 211 222 212 173 195 202 174 284 246 67 143 145 246 166 228 109 232 202 188 150 248 49 53 289 199 354 102 248 304 315 327
286 286 286 285 285 285 283 283 283 283 283 283 282 271 276 273 246 224 219 227 219 224 251 223 248 254 244 243 237 194 201 166 203 110 216 86 310 355 178 265 160 298 190 207 185 227 265 297 291 298 298 301 320 324
283 283 284 284 283 282 282 281 280 280 280 280 280 276 271 273 244 220 216 212 203 223 255 258 248 261 256 246 245 223 219 224 209 218 179 202 220 138 213 246 234 268 219 246 337 264 260 289 305 287 302 318 317 314
284 282 281 281 281 281 280 279 278 277 277 277 276 273 270 270 236 212 215 216 205 172 231 250 225 247 249 223 224 227 233 221 225 218 186 188 183 205 228 244 248 220 287 244 261 279 278 278 169 303 317 314 311 317
289 286 284 282 281 279 278 277 277 275 273 273 274 267 269 251 214 210 212 213 215 201 192 217 213 241 239 242 238 237 232 225 208 186 192 219 228 231 244 318 263 235 242 196 232 243 230 260 287 307 312 316 317 320
296 293 290 287 283 280 277 273 272 271 270 269 268 264 271 220 205 195 195 215 216 217 222 305 246 237 232 206 213 216 223 224 217 192 208 235 238 198 250 227 247 249 248 237 248 242 256 285 297 281 310 311 313 316
298 297 295 290 288 283 272 269 267 267 265 263 268 263 233 207 197 178 192 201 198 198 171 296 303 204 214 216 208 200 202 202 210 223 227 232 221 217 236 255 263 255 274 259 247 266 285 240 253 301 309 311 311 312
297 296 295 292 288 282 271 266 262 261 261 259 264 195 181 182 179 176 136 147 171 161 174 164 260 177 193 173 156 182 183 200 208 228 234 202 223 209 247 247 264 264 254 226 242 259 270 282 296 300 309 312 315 322
298 296 294 290 285 281 268 256 253 252 264 202 192 164 162 164 157 146 136 152 164 166 174 172 168 209 170 156 146 169 175 154 215 206 224 175 227 223 233 243 225 227 221 213 247 278 285 289 306 312 318 321 323 329
299 294 292 287 283 270 261 245 235 241 182 174 157 140 137 137 135 132 139 170 189 207 212 198 190 165 168 165 176 133 176 222 227 231 157 208 250 254 261 250 219 224 242 269 299 287 297 309 321 326 330 330 330 331
298 294 290 286 265 258 240 224 234 184 166 153 144 94 134 140 131 123 142 160 168 232 207 199 187 134 184 124 173 203 191 233 263 259 156 253 268 231 200 212 224 245 270 289 298 299 303 310 319 325 337 338 338 342
297 291 288 263 253 238 221 234 185 177 177 178 140 128 139 146 108 140 168 170 186 210 166 147 161 159 139 143 115 189 179 71 248 155 90 268 248 158 179 197 230 265 285 296 304 305 310 319 327 336 345 356 359 3
298 290 267 239 235 220 225 187 183 181 167 126 111 143 157 154 171 187 175 205 176 160 152 146 125 142 134 168 126 122 156 229 123 151 230 231 141 165 177 225 273 283 299 304 304 308 318 331 344 357 1 5 7 7
301 274 250 234 231 210 211 184 170 164 159 112 139 141 198 181 206 181 173 140 123 136 138 137 119 135 143 111 161 139 229 88 272 262 237 258 194 186 238 287 299 301 309 301 296 293 299 320 332 354 3 4 359 355
318 255 238 233 210 214 171 166 162 160 104 96 124 139 174 116 91 107 116 108 116 140 135 109 81 113 124 133 175 118 41 249 210 232 231 217 179 208 276 304 305 304 311 294 277 268 286 295 311 326 327 331 335 339
4 285 240 219 177 166 161 162 156 116 76 79 66 84 97 91 80 91 109 114 136 138 122 103 115 93 216 153 129 209 167 220 249 229 132 222 240 272 301 304 302 303 312 299 274 263 271 283 303 312 315 319 325 325
22 97 109 123 133 140 145 137 77 61 72 60 36 98 102 111 113 117 132 140 150 142 124 124 123 194 104 110 230 193 205 201 156 187 293 289 285 287 299 300 294 290 295 285 254 256 291 308 314 312 315 312 310 312
113 115 114 120 125 118 108 48 69 65 67 79 93 54 79 106 124 128 142 152 151 127 129 172 123 120 189 181 248 217 156 160 178 289 314 305 299 304 298 293 280 271 270 271 275 296 301 304 309 307 308 311 315 316
133 141 136 147 126 76 52 46 56 90 65 71 99 82 93 113 133 146 156 162 156 148 134 143 107 186 222 208 171 157 168 162 181 317 310 311 312 301 292 296 278 269 271 273 286 294 297 306 312 312 315 319 320 316
149 167 168 161 152 76 70 50 64 91 90 100 108 96 100 112 131 142 164 171 158 147 104 169 207 195 187 210 190 165 246 272 278 287 288 294 296 288 283 285 268 270 276 284 291 295 302 311 315 314 314 316 317 316
175 152 151 162 68 72 85 66 64 79 110 90 124 105 94 121 118 141 152 174 179 200 228 222 216 213 224 235 248 260 264 265 266 272 277 282 281 277 278 275 266 278 281 289 291 300 314 319 315 311 310 310 317 322
178 172 121 76 77 72 74 53 94 102 89 114 119 100 103 89 102 123 151 177 233 234 217 221 230 235 241 245 255 260 261 260 262 269 277 274 274 276 273 254 254 274 287 297 307 315 310 310 308 306 314 324 326 324
178 171 95 78 90 63 67 73 85 52 101 152 102 63 12 60 94 153 242 229 255 236 231 236 236 235 238 243 247 252 254 255 260 263 265 266 262 258 251 245 257 271 290 305 308 306 306 309 311 321 331 324 313 315
154 126 93 75 72 110 109 49 69 83 89 54 67 63 332 142 138 58 248 262 238 246 245 241 238 237 238 242 245 248 249 251 252 255 258 257 250 244 238 243 258 280 294 295 295 301 311 313 319 323 318 316 319 320
118 36 97 62 87 97 79 45 21 60 96 337 91 351 289 152 64 295 232 271 312 278 250 240 229 224 227 234 239 239 240 241 243 246 255 253 236 221 231 252 278 283 288 285 287 304 310 315 315 317 320 321 320 321
85 20 76 156 135 109 160 119 161 152 124 104 177 95 117 86 64 249 239 266 312 323 256 207 210 218 223 228 232 234 232 230 236 248 250 231 213 210 229 266 288 287 281 271 285 294 299 310 314 318 320 320 322 322
121 172 99 104 110 117 91 82 109 104 122 155 184 112 84 119 249 252 253 276 286 316 223 196 209 225 227 235 226 224 224 225 225 225 225 218 215 224 244 271 289 287 259 244 272 288 305 312 316 319 323 325 324 323
107 155 132 148 102 87 119 96 130 171 185 160 130 167 169 188 225 195 221 293 277 275 253 232 239 239 225 210 201 201 200 201 211 219 223 229 234 241 245 261 281 253 226 254 290 308 312 318 322 325 327 326 326 325
77 123 119 60 83 73 105 147 182 148 142 170 146 189 224 185 186 196 268 270 260 255 246 229 227 220 212 203 201 204 200 208 218 230 229 240 250 241 237 250 224 201 217 257 293 310 319 324 325 326 327 326 327 328
95 117 103 86 93 109 50 91 113 139 137 143 136 129 147 171 200 236 244 230 222 207 201 199 197 194 196 200 201 200 208 216 228 242 243 237 238 234 206 186 177 182 209 277 309 316 322 327 328 326 325 326 327 329
101 86 74 54 86 74 122 118 122 127 138 155 153 138 138 169 246 237 218 207 201 198 193 187 186 186 183 188 203 214 225 229 242 236 217 197 182 171 161 155 158 172 274 314 319 326 331 331 329 330 332 333 335 335
51 55 118 103 61 131 121 95 110 99 115 139 139 170 180 209 245 228 212 206 201 194 194 199 212 225 232 235 225 204 195 187 180 180 175 161 151 144 142 145 147 195 320 328 336 336 335 334 335 337 338 339 339 342
90 75 81 101 95 91 144 124 81 76 80 103 124 182 199 230 248 228 205 195 196 199 209 221 231 232 218 200 183 174 164 161 158 151 145 140 136 136 138 135 125 350 349 346 342 341 340 339 341 341 342 344 345 346